Weather Roundup
Issued by NWS Chicago, IL

Home | Current Version | Previous Version | Text Only | Print | Product List | Glossary On
Versions: 1 2 3 4 5 6 7 8 9 10 11 12 13 14 15 16 17 18 19 20 21 22 23 24 25 26 27 28 29 30 31 32 33 34 35 36 37 38 39 40 41 42 43 44 45 46 47 48 49 50
000
NZUS59 KLOT 271721
HRRLOT

CHICAGO AREA WEATHER ROUNDUP
NATIONAL WEATHER SERVICE CHICAGO/ROMEOVILLE IL
1200 PM CDT FRI MAR 27 2015

NOTE: "FAIR" INDICATES FEW OR NO CLOUDS BELOW 12,000 FEET WITH NO
SIGNIFICANT WEATHER AND/OR OBSTRUCTIONS TO VISIBILITY.

* THESE STATIONS ARE NOT UNDER NWS QUALITY CONTROL. THEY ALSO MAY NOT
  REPORT WEATHER SUCH AS PRECIPITATION OR FOG.

ILZ005-006-012>014-019>023-271800-
NORTHEAST ILLINOIS

CITY           SKY/WX    TMP DP  RH WIND       PRES   REMARKS
OHARE          MOSUNNY   27   9  46 N15       30.16F WCI  15
MIDWAY         PTSUNNY   28  12  51 N14G25    30.17S WCI  17
AURORA         SUNNY     29   5  36 N16G26    30.17F WCI  17
LANSING*       FLURRIES  26  13  57 N14G21    30.16S WCI  15
JOLIET*        SUNNY     30  11  45 NE18      30.17F WCI  18
WAUKEGAN       MOSUNNY   26  12  55 N13G21    30.17S WCI  15
DUPAGE AIRPORT SUNNY     29   4  34 N16G22    30.16S WCI  17
WHEELING       MOSUNNY   27   7  42 N14G23    30.19S WCI  16
KANKAKEE*      MOSUNNY   31  14  49 N13       30.16S WCI  21
MORRIS*        SUNNY     31   7  37 N8G20     30.17S WCI  23
LEWIS AIRPORT* SUNNY     28  11  49 NE14G22   30.17S WCI  17
NORTHERLY IS     N/A     26  16  65 MISG        N/A
$$

WIZ051-052-058>065-066-070>072-271800-
SOUTHEAST WISCONSIN

CITY           SKY/WX    TMP DP  RH WIND       PRES   REMARKS
MILWAUKEE      MOSUNNY   26   9  48 NE15G22   30.18F WCI  14
KENOSHA*       MOSUNNY   27   9  46 N15       30.18S WCI  15
RACINE*        MOSUNNY   25  10  53 N15G23    30.20S WCI  13
BURLINGTON     SUNNY     26   3  38 NE10G20   30.17F WCI  15
WAUKESHA       MOSUNNY   25   3  39 N12G20    30.18F WCI  14
WEST BEND      PTSUNNY   27   5  39 N14       30.18S WCI  15
$$

INZ001>003-010>013-019-020-271800-
NORTHWEST INDIANA

CITY           SKY/WX    TMP DP  RH WIND       PRES   REMARKS
GARY*          PTSUNNY   28  12  50 NW22G35   30.17R WCI  15
MICHIGAN CITY* NOT AVBL
RENSSELAER*    NOT AVBL
VALPARAISO     LGT SNOW  27  19  72 N12G21    30.13R WCI  17
$$

LMZ740>746-271800-
SOUTHERN LAKE MICHIGAN

STATION/POSITION TIME  SKY/WX   TEMP WIND        PRES    VSBY
                                AIR  DIR/SP/G
                 (UTC)          (F)  (DEG/KT/KT) (MB)    (MI)
HARRISON CRIB    1700            24  340/ 22/ 28   N/A
BURNHAM HARBOR   1700            26  340/ 14/ 20   N/A
CALUMET HARBOR   1600            25  330/ 17/ 25 1020.3R
BURNS HARBOR     1700            25  340/ 22/ 51 1021.0S
MICHIGAN CITY    1700            24  360/ 20/ 24   N/A
$$

ABBREVIATIONS USED IN REMARKS
   TC - TEMPERATURE IN CELSIUS
  WCI - WIND CHILL INDEX
   HX - HEAT INDEX
  VSB - VISIBILITY
$$


USA.gov is the U.S. government's official web portal to all federal, state and local government web resources and services.